| time (UTC) | temp F | wind direction | speed MPH | gust MPH | rain 1hr in | rain 24hr in | rain mn in | humidity % | barometer mb |
| 20260507033044 | 44 | 175 | 0.0 | 0.0 | 0.00 | 0.66 | 0.66 | 98 | 1013.5 |
| 20260507032541 | 44 | 169 | 0.0 | 0.0 | 0.00 | 0.66 | 0.66 | 98 | 1013.1 |
| 20260507032038 | 45 | 288 | 1.0 | 2.0 | 0.00 | 0.66 | 0.66 | 98 | 1013.1 |
| 20260507031534 | 44 | 155 | 0.0 | 0.0 | 0.00 | 0.66 | 0.66 | 98 | 1013.1 |
| 20260507031031 | 44 | 169 | 0.0 | 0.0 | 0.00 | 0.66 | 0.66 | 98 | 1013.1 |
| 20260507030528 | 44 | 226 | 0.0 | 0.0 | 0.00 | 0.66 | 0.66 | 98 | 1013.1 |
| 20260507030026 | 44 | 180 | 0.0 | 0.0 | 0.00 | 0.66 | 0.66 | 98 | 1013.5 |
| 20260507025522 | 45 | 179 | 1.0 | 1.0 | 0.00 | 0.66 | 0.66 | 99 | 1013.5 |
| 20260507025020 | 45 | 219 | 0.0 | 0.0 | 0.00 | 0.66 | 0.66 | 98 | 1013.1 |
| 20260507024518 | 45 | 176 | 0.0 | 0.0 | 0.00 | 0.66 | 0.66 | 98 | 1013.5 |
| 20260507024014 | 45 | 164 | 0.0 | 0.0 | 0.00 | 0.66 | 0.66 | 98 | 1013.1 |
| 20260507023510 | 45 | 254 | 0.0 | 0.0 | 0.00 | 0.66 | 0.66 | 98 | 1013.1 |
| 20260507023008 | 45 | 170 | 0.0 | 0.0 | 0.00 | 0.66 | 0.66 | 98 | 1013.5 |
| 20260507022504 | 45 | 235 | 0.0 | 0.0 | 0.00 | 0.66 | 0.66 | 98 | 1013.1 |
| 20260507022000 | 45 | 186 | 0.0 | 0.0 | 0.00 | 0.66 | 0.66 | 98 | 1013.5 |
| 20260507021455 | 45 | 161 | 0.0 | 0.0 | 0.00 | 0.66 | 0.66 | 98 | 1013.1 |
| 20260507020953 | 45 | 162 | 0.0 | 0.0 | 0.00 | 0.66 | 0.66 | 98 | 1013.5 |
| 20260507020450 | 45 | 161 | 0.0 | 0.0 | 0.00 | 0.66 | 0.66 | 98 | 1013.5 |
| 20260507015947 | 45 | 158 | 0.0 | 0.0 | 0.00 | 0.66 | 0.66 | 98 | 1013.1 |
| 20260507015445 | 45 | 162 | 0.0 | 0.0 | 0.00 | 0.66 | 0.66 | 98 | 1013.9 |
| 20260507014942 | 45 | 158 | 0.0 | 0.0 | 0.00 | 0.66 | 0.66 | 97 | 1013.1 |
| 20260507014438 | 45 | 158 | 0.0 | 0.0 | 0.00 | 0.66 | 0.66 | 97 | 1013.5 |
| 20260507013934 | 45 | 158 | 0.0 | 0.0 | 0.00 | 0.66 | 0.66 | 97 | 1013.1 |
| 20260507013431 | 45 | 164 | 0.0 | 0.0 | 0.00 | 0.66 | 0.66 | 97 | 1013.5 |
| 20260507012929 | 45 | 162 | 0.0 | 0.0 | 0.00 | 0.66 | 0.66 | 97 | 1013.5 |
| 20260507012426 | 45 | 158 | 0.0 | 0.0 | 0.00 | 0.66 | 0.66 | 97 | 1013.1 |
| 20260507011923 | 45 | 155 | 0.0 | 0.0 | 0.00 | 0.66 | 0.66 | 97 | 1012.7 |
| 20260507011420 | 45 | 158 | 0.0 | 0.0 | 0.00 | 0.66 | 0.66 | 96 | 1013.1 |
| 20260507010919 | 45 | 144 | 0.0 | 0.0 | 0.00 | 0.66 | 0.66 | 96 | 1013.1 |
| 20260507010415 | 45 | 158 | 0.0 | 0.0 | 0.00 | 0.66 | 0.66 | 96 | 1013.1 |
| 20260507005912 | 45 | 161 | 0.0 | 0.0 | 0.00 | 0.66 | 0.66 | 96 | 1013.1 |
| 20260507005409 | 45 | 160 | 0.0 | 0.0 | 0.00 | 0.66 | 0.66 | 96 | 1013.1 |
| 20260507004906 | 45 | 160 | 0.0 | 0.0 | 0.00 | 0.66 | 0.66 | 96 | 1013.1 |
| 20260507004402 | 45 | 159 | 0.0 | 0.0 | 0.00 | 0.66 | 0.66 | 96 | 1013.1 |
| 20260507003900 | 45 | 159 | 0.0 | 0.0 | 0.00 | 0.66 | 0.66 | 96 | 1013.1 |
| 20260507003355 | 45 | 154 | 0.0 | 0.0 | 0.00 | 0.66 | 0.66 | 96 | 1013.1 |
| 20260507002850 | 45 | 161 | 0.0 | 0.0 | 0.00 | 0.66 | 0.66 | 96 | 1012.7 |
| 20260507002347 | 45 | 167 | 0.0 | 0.0 | 0.00 | 0.66 | 0.66 | 95 | 1013.1 |
| 20260507001844 | 46 | 159 | 0.0 | 0.0 | 0.00 | 0.66 | 0.66 | 95 | 1012.7 |
| 20260507001341 | 46 | 164 | 0.0 | 0.0 | 0.00 | 0.66 | 0.66 | 95 | 1012.7 |
| 20260507000837 | 46 | 151 | 0.0 | 0.0 | 0.00 | 0.66 | 0.66 | 95 | 1012.7 |
| 20260507000333 | 46 | 165 | 0.0 | 0.0 | 0.00 | 0.66 | 0.66 | 95 | 1012.4 |
| 20260506235829 | 46 | 179 | 0.0 | 0.0 | 0.00 | 0.66 | 0.66 | 95 | 1012.4 |
| 20260506235326 | 46 | 159 | 0.0 | 0.0 | 0.00 | 0.66 | 0.66 | 95 | 1012.4 |
| 20260506234822 | 46 | 161 | 0.0 | 0.0 | 0.00 | 0.66 | 0.66 | 94 | 1012.4 |
| 20260506234320 | 46 | 163 | 0.0 | 0.0 | 0.00 | 0.66 | 0.66 | 94 | 1012.4 |
| 20260506233818 | 46 | 229 | 2.0 | 3.0 | 0.00 | 0.66 | 0.66 | 94 | 1012.4 |
| 20260506233313 | 46 | 166 | 0.0 | 0.0 | 0.00 | 0.66 | 0.66 | 94 | 1012.1 |
| 20260506232810 | 47 | 162 | 0.0 | 0.0 | 0.00 | 0.66 | 0.66 | 94 | 1011.7 |
| 20260506232306 | 47 | 160 | 0.0 | 0.0 | 0.00 | 0.66 | 0.66 | 94 | 1012.1 |
| 20260506231803 | 47 | 199 | 0.0 | 0.0 | 0.00 | 0.66 | 0.66 | 93 | 1012.1 |
| 20260506231301 | 47 | 184 | 1.0 | 2.0 | 0.00 | 0.66 | 0.66 | 94 | 1012.1 |
| 20260506230758 | 47 | 175 | 0.0 | 0.0 | 0.00 | 0.66 | 0.66 | 93 | 1011.4 |
| 20260506230255 | 47 | 168 | 0.0 | 0.0 | 0.00 | 0.66 | 0.66 | 92 | 1011.4 |
| 20260506225751 | 47 | 180 | 0.0 | 0.0 | 0.00 | 0.66 | 0.66 | 92 | 1011.7 |
| 20260506225248 | 47 | 297 | 1.0 | 1.0 | 0.00 | 0.66 | 0.66 | 91 | 1011.4 |
| 20260506224744 | 47 | 151 | 0.0 | 0.0 | 0.00 | 0.66 | 0.66 | 92 | 1011.4 |
| 20260506224242 | 47 | 173 | 1.0 | 1.0 | 0.00 | 0.66 | 0.66 | 93 | 1012.1 |
| 20260506223738 | 47 | 169 | 1.0 | 1.0 | 0.00 | 0.66 | 0.66 | 92 | 1011.7 |
| 20260506223234 | 47 | 175 | 0.0 | 0.0 | 0.00 | 0.66 | 0.66 | 92 | 1012.1 |
| 20260506222731 | 47 | 188 | 0.0 | 0.0 | 0.00 | 0.66 | 0.66 | 92 | 1012.1 |
| 20260506222226 | 47 | 194 | 1.0 | 1.0 | 0.00 | 0.66 | 0.66 | 92 | 1011.7 |
| 20260506221724 | 47 | 193 | 1.0 | 2.0 | 0.00 | 0.66 | 0.66 | 93 | 1012.1 |
| 20260506221222 | 47 | 176 | 0.0 | 0.0 | 0.00 | 0.66 | 0.66 | 93 | 1012.1 |
| 20260506220719 | 47 | 171 | 0.0 | 1.0 | 0.00 | 0.66 | 0.66 | 93 | 1012.1 |
| 20260506220214 | 47 | 232 | 2.0 | 2.0 | 0.00 | 0.66 | 0.66 | 93 | 1011.7 |
| 20260506215711 | 47 | 152 | 0.0 | 1.0 | 0.00 | 0.66 | 0.66 | 93 | 1012.1 |
| 20260506215206 | 48 | 168 | 0.0 | 0.0 | 0.00 | 0.66 | 0.66 | 93 | 1012.1 |
| 20260506214703 | 48 | 177 | 1.0 | 2.0 | 0.00 | 0.66 | 0.66 | 94 | 1011.7 |
| 20260506214200 | 48 | 304 | 2.0 | 5.0 | 0.00 | 0.66 | 0.66 | 94 | 1011.7 |
| 20260506213659 | 48 | 302 | 0.0 | 2.0 | 0.00 | 0.66 | 0.66 | 94 | 1011.7 |
| 20260506213156 | 48 | 160 | 0.0 | 0.0 | 0.00 | 0.66 | 0.66 | 95 | 1011.7 |
| 20260506212653 | 48 | 146 | 1.0 | 1.0 | 0.00 | 0.66 | 0.66 | 95 | 1011.4 |
| 20260506212148 | 48 | 182 | 2.0 | 2.0 | 0.00 | 0.66 | 0.66 | 95 | 1011.4 |
| 20260506211643 | 48 | 192 | 1.0 | 2.0 | 0.00 | 0.66 | 0.66 | 96 | 1011.7 |
| 20260506211140 | 47 | 240 | 1.0 | 2.0 | 0.00 | 0.66 | 0.66 | 96 | 1011.4 |
| 20260506210637 | 47 | 317 | 4.0 | 5.0 | 0.00 | 0.66 | 0.66 | 96 | 1011.7 |
| 20260506210135 | 47 | 86 | 2.0 | 5.0 | 0.00 | 0.66 | 0.66 | 96 | 1011.7 |
| 20260506205632 | 47 | 261 | 3.0 | 5.0 | 0.00 | 0.66 | 0.66 | 97 | 1011.4 |
| 20260506205132 | 47 | 286 | 5.0 | 7.0 | 0.00 | 0.66 | 0.66 | 98 | 1011.4 |
| 20260506204630 | 46 | 287 | 2.0 | 3.0 | 0.00 | 0.66 | 0.66 | 98 | 1011.4 |
| 20260506204127 | 46 | 188 | 3.0 | 3.0 | 0.00 | 0.66 | 0.66 | 99 | 1011.4 |
| 20260506203625 | 46 | 237 | 2.0 | 2.0 | 0.00 | 0.66 | 0.66 | 99 | 1011.1 |
| 20260506203121 | 46 | 172 | 1.0 | 1.0 | 0.00 | 0.66 | 0.66 | 99 | 1011.4 |
| 20260506202619 | 47 | 223 | 2.0 | 2.0 | 0.00 | 0.66 | 0.66 | 99 | 1011.1 |
| 20260506202115 | 46 | 201 | 1.0 | 1.0 | 0.00 | 0.66 | 0.66 | 99 | 1011.1 |
| 20260506201613 | 46 | 282 | 0.0 | 1.0 | 0.00 | 0.66 | 0.66 | 99 | 1011.1 |
| 20260506201109 | 46 | 181 | 1.0 | 1.0 | 0.00 | 0.66 | 0.66 | 99 | 1010.7 |
| 20260506200606 | 46 | 295 | 1.0 | 2.0 | 0.00 | 0.66 | 0.66 | 99 | 1010.7 |
| 20260506195559 | 46 | 189 | 3.0 | 3.0 | 0.00 | 0.66 | 0.66 | 99 | 1011.1 |
| 20260506195055 | 46 | 190 | 2.0 | 2.0 | 0.00 | 0.66 | 0.66 | 99 | 1011.1 |
| 20260506194553 | 46 | 178 | 2.0 | 2.0 | 0.00 | 0.66 | 0.66 | 99 | 1011.1 |
| 20260506194049 | 46 | 75 | 2.0 | 2.0 | 0.00 | 0.66 | 0.66 | 99 | 1011.4 |
| 20260506193547 | 46 | 148 | 1.0 | 1.0 | 0.00 | 0.66 | 0.66 | 99 | 1011.1 |
| 20260506193044 | 46 | 219 | 4.0 | 5.0 | 0.00 | 0.66 | 0.66 | 99 | 1011.1 |
| 20260506192541 | 46 | 144 | 2.0 | 2.0 | 0.00 | 0.66 | 0.66 | 99 | 1011.1 |
| 20260506192037 | 46 | 283 | 4.0 | 5.0 | 0.00 | 0.66 | 0.66 | 99 | 1010.7 |
| 20260506191534 | 46 | 200 | 0.0 | 1.0 | 0.00 | 0.66 | 0.66 | 99 | 1010.7 |
| 20260506191029 | 46 | 278 | 1.0 | 1.0 | 0.00 | 0.66 | 0.66 | 99 | 1010.7 |
| 20260506190527 | 46 | 220 | 1.0 | 2.0 | 0.00 | 0.66 | 0.66 | 99 | 1010.7 |
| 20260506190024 | 46 | 145 | 3.0 | 5.0 | 0.00 | 0.66 | 0.66 | 99 | 1010.4 |
| 20260506185521 | 46 | 252 | 2.0 | 3.0 | 0.00 | 0.66 | 0.66 | 99 | 1010.7 |
| 20260506185017 | 46 | 207 | 1.0 | 2.0 | 0.00 | 0.66 | 0.66 | 99 | 1010.4 |
| 20260506184515 | 46 | 224 | 2.0 | 2.0 | 0.00 | 0.66 | 0.66 | 99 | 1010.7 |
| 20260506184012 | 46 | 175 | 1.0 | 1.0 | 0.00 | 0.66 | 0.66 | 99 | 1010.7 |
| 20260506183507 | 46 | 163 | 1.0 | 1.0 | 0.00 | 0.66 | 0.66 | 99 | 1010.7 |
| 20260506183005 | 46 | 278 | 2.0 | 2.0 | 0.00 | 0.66 | 0.66 | 99 | 1010.4 |
| 20260506182502 | 46 | 86 | 3.0 | 3.0 | 0.00 | 0.66 | 0.66 | 99 | 1010.7 |
| 20260506181959 | 46 | 211 | 3.0 | 5.0 | 0.00 | 0.66 | 0.66 | 99 | 1010.4 |
| 20260506181457 | 46 | 209 | 3.0 | 3.0 | 0.00 | 0.66 | 0.66 | 99 | 1010.4 |
| 20260506180953 | 46 | 193 | 3.0 | 5.0 | 0.00 | 0.66 | 0.66 | 99 | 1010.0 |
| 20260506180450 | 46 | 207 | 1.0 | 2.0 | 0.00 | 0.66 | 0.66 | 99 | 1010.0 |
| 20260506175947 | 46 | 177 | 3.0 | 3.0 | 0.00 | 0.66 | 0.66 | 99 | 1010.0 |
| 20260506175443 | 46 | 168 | 1.0 | 1.0 | 0.00 | 0.66 | 0.66 | 99 | 1010.0 |
| 20260506174940 | 46 | 278 | 4.0 | 5.0 | 0.00 | 0.66 | 0.66 | 99 | 1010.0 |
| 20260506174438 | 47 | 245 | 0.0 | 0.0 | 0.00 | 0.66 | 0.66 | 99 | 1010.0 |
| 20260506173934 | 47 | 130 | 1.0 | 1.0 | 0.00 | 0.66 | 0.66 | 99 | 1010.0 |
| 20260506173431 | 47 | 174 | 0.0 | 0.0 | 0.00 | 0.66 | 0.66 | 99 | 1009.7 |
| 20260506172923 | 47 | 179 | 0.0 | 0.0 | 0.00 | 0.66 | 0.66 | 99 | 1010.0 |
| 20260506172420 | 47 | 263 | 0.0 | 0.0 | 0.00 | 0.66 | 0.66 | 99 | 1010.0 |
| 20260506171917 | 47 | 202 | 0.0 | 0.0 | 0.00 | 0.66 | 0.66 | 99 | 1009.7 |
| 20260506171414 | 47 | 187 | 0.0 | 0.0 | 0.00 | 0.66 | 0.66 | 99 | 1009.7 |
| 20260506170912 | 48 | 193 | 1.0 | 1.0 | 0.00 | 0.66 | 0.66 | 99 | 1009.7 |
| 20260506170408 | 48 | 162 | 0.0 | 0.0 | 0.00 | 0.66 | 0.66 | 99 | 1009.4 |
| 20260506165907 | 47 | 162 | 0.0 | 0.0 | 0.00 | 0.66 | 0.66 | 99 | 1009.7 |
| 20260506165405 | 47 | 152 | 0.0 | 0.0 | 0.00 | 0.66 | 0.66 | 99 | 1009.7 |
| 20260506164900 | 47 | 300 | 1.0 | 3.0 | 0.00 | 0.66 | 0.66 | 99 | 1009.7 |
| 20260506164357 | 47 | 157 | 0.0 | 0.0 | 0.00 | 0.66 | 0.66 | 99 | 1009.7 |
| 20260506163855 | 47 | 198 | 1.0 | 1.0 | 0.00 | 0.66 | 0.66 | 99 | 1009.7 |
| 20260506163349 | 47 | 256 | 0.0 | 0.0 | 0.00 | 0.66 | 0.66 | 99 | 1009.7 |
| 20260506162845 | 47 | 209 | 0.0 | 0.0 | 0.00 | 0.66 | 0.66 | 99 | 1009.7 |
| 20260506162343 | 47 | 230 | 0.0 | 1.0 | 0.00 | 0.66 | 0.66 | 99 | 1010.0 |
| 20260506161840 | 47 | 287 | 1.0 | 2.0 | 0.00 | 0.66 | 0.66 | 99 | 1010.0 |
| 20260506161337 | 47 | 171 | 1.0 | 1.0 | 0.05 | 0.66 | 0.66 | 99 | 1009.7 |
| 20260506160835 | 46 | 182 | 0.0 | 0.0 | 0.05 | 0.66 | 0.66 | 99 | 1010.0 |
| 20260506160332 | 46 | 160 | 0.0 | 0.0 | 0.00 | 0.65 | 0.65 | 99 | 1010.0 |
| 20260506155830 | 46 | 155 | 0.0 | 0.0 | 0.00 | 0.65 | 0.65 | 99 | 1010.0 |
| 20260506155326 | 46 | 155 | 0.0 | 0.0 | 0.00 | 0.65 | 0.65 | 99 | 1010.0 |
| 20260506153439 | 45 | 159 | 0.0 | 0.0 | 0.05 | 0.64 | 0.64 | 99 | 1010.4 |
| 20260506152936 | 46 | 215 | 0.0 | 0.0 | 0.00 | 0.63 | 0.63 | 99 | 1010.4 |
| 20260506152433 | 45 | 147 | 0.0 | 0.0 | 0.00 | 0.63 | 0.63 | 99 | 1010.4 |
| 20260506151932 | 45 | 173 | 0.0 | 0.0 | 0.00 | 0.63 | 0.63 | 99 | 1010.0 |
| 20260506151428 | 45 | 205 | 1.0 | 1.0 | 0.07 | 0.63 | 0.63 | 99 | 1010.0 |
| 20260506150926 | 45 | 160 | 0.0 | 0.0 | 0.07 | 0.63 | 0.63 | 99 | 1009.7 |
| 20260506150421 | 45 | 165 | 0.0 | 0.0 | 0.00 | 0.62 | 0.62 | 99 | 1010.0 |
| 20260506145919 | 46 | 174 | 0.0 | 0.0 | 0.00 | 0.62 | 0.62 | 99 | 1010.0 |
| 20260506145415 | 46 | 152 | 0.0 | 0.0 | 0.00 | 0.62 | 0.62 | 99 | 1009.7 |
| 20260506144913 | 45 | 158 | 0.0 | 0.0 | 0.07 | 0.62 | 0.62 | 99 | 1009.7 |
| 20260506144409 | 45 | 174 | 0.0 | 0.0 | 0.07 | 0.62 | 0.62 | 99 | 1009.7 |
| 20260506143908 | 46 | 163 | 0.0 | 0.0 | 0.05 | 0.61 | 0.61 | 99 | 1009.4 |
| 20260506143404 | 45 | 147 | 0.0 | 0.0 | 0.05 | 0.61 | 0.61 | 99 | 1009.7 |
| 20260506142902 | 45 | 154 | 0.0 | 0.0 | 0.07 | 0.60 | 0.60 | 99 | 1009.7 |
| 20260506142400 | 45 | 163 | 0.0 | 0.0 | 0.07 | 0.60 | 0.60 | 99 | 1009.7 |
| 20260506141858 | 45 | 161 | 0.0 | 0.0 | 0.05 | 0.59 | 0.59 | 99 | 1009.7 |
| 20260506141355 | 45 | 147 | 0.0 | 0.0 | 0.12 | 0.59 | 0.59 | 99 | 1009.7 |
| 20260506140854 | 45 | 144 | 0.0 | 0.0 | 0.07 | 0.58 | 0.58 | 99 | 1009.7 |
| 20260506140350 | 45 | 157 | 0.0 | 0.0 | 0.00 | 0.57 | 0.57 | 99 | 1009.7 |
| 20260506135847 | 45 | 148 | 0.0 | 0.0 | 0.05 | 0.57 | 0.57 | 99 | 1009.7 |
| 20260506135344 | 45 | 155 | 0.0 | 0.0 | 0.05 | 0.57 | 0.57 | 99 | 1009.7 |
| 20260506134840 | 44 | 150 | 0.0 | 0.0 | 0.00 | 0.56 | 0.56 | 99 | 1010.0 |
| 20260506134337 | 45 | 163 | 0.0 | 0.0 | 0.07 | 0.56 | 0.56 | 99 | 1010.0 |
| 20260506133834 | 45 | 154 | 0.0 | 0.0 | 0.05 | 0.55 | 0.55 | 99 | 1010.0 |
| 20260506133331 | 45 | 162 | 0.0 | 0.0 | 0.12 | 0.55 | 0.55 | 99 | 1010.4 |
| 20260506132827 | 45 | 161 | 0.0 | 0.0 | 0.07 | 0.54 | 0.54 | 99 | 1010.4 |
| 20260506132325 | 44 | 155 | 0.0 | 0.0 | 0.05 | 0.53 | 0.53 | 99 | 1010.0 |
| 20260506131823 | 45 | 154 | 0.0 | 0.0 | 0.12 | 0.53 | 0.53 | 99 | 1010.0 |
| 20260506131319 | 45 | 157 | 0.0 | 0.0 | 0.12 | 0.52 | 0.52 | 99 | 1010.0 |
| 20260506130816 | 45 | 154 | 0.0 | 0.0 | 0.12 | 0.51 | 0.51 | 99 | 1010.4 |
| 20260506130312 | 45 | 157 | 0.0 | 0.0 | 0.19 | 0.50 | 0.50 | 99 | 1010.4 |
| 20260506125810 | 44 | 163 | 0.0 | 0.0 | 0.12 | 0.48 | 0.48 | 99 | 1010.4 |
| 20260506125308 | 44 | 155 | 0.0 | 0.0 | 0.19 | 0.47 | 0.47 | 99 | 1010.4 |
| 20260506124807 | 45 | 143 | 0.0 | 0.0 | 0.19 | 0.45 | 0.45 | 99 | 1010.0 |
| 20260506124303 | 44 | 170 | 0.0 | 0.0 | 0.24 | 0.44 | 0.44 | 99 | 1010.4 |
| 20260506123801 | 44 | 153 | 0.0 | 0.0 | 0.17 | 0.42 | 0.42 | 99 | 1010.0 |
| 20260506123259 | 45 | 154 | 0.0 | 0.0 | 0.12 | 0.40 | 0.40 | 99 | 1010.0 |
| 20260506122755 | 44 | 156 | 0.0 | 0.0 | 0.07 | 0.39 | 0.39 | 99 | 1010.0 |
| 20260506122253 | 44 | 164 | 0.0 | 0.0 | 0.05 | 0.38 | 0.38 | 99 | 1010.0 |
| 20260506121751 | 44 | 131 | 0.0 | 0.0 | 0.05 | 0.38 | 0.38 | 99 | 1010.0 |
| 20260506121248 | 44 | 167 | 0.0 | 0.0 | 0.00 | 0.37 | 0.37 | 99 | 1009.7 |
| 20260506120744 | 45 | 156 | 0.0 | 0.0 | 0.07 | 0.37 | 0.37 | 99 | 1009.7 |
| 20260506120243 | 45 | 151 | 0.0 | 0.0 | 0.07 | 0.37 | 0.37 | 99 | 1010.0 |
| 20260506115740 | 44 | 147 | 0.0 | 0.0 | 0.00 | 0.36 | 0.36 | 99 | 1009.7 |
| 20260506115238 | 44 | 217 | 0.0 | 0.0 | 0.00 | 0.36 | 0.36 | 99 | 1010.0 |
| 20260506114736 | 45 | 115 | 0.0 | 0.0 | 0.07 | 0.36 | 0.36 | 99 | 1009.7 |
| 20260506114233 | 45 | 154 | 0.0 | 0.0 | 0.00 | 0.35 | 0.35 | 99 | 1010.4 |
| 20260506113731 | 45 | 157 | 0.0 | 0.0 | 0.05 | 0.35 | 0.35 | 99 | 1010.4 |
| 20260506113228 | 45 | 149 | 0.0 | 0.0 | 0.05 | 0.35 | 0.35 | 99 | 1010.0 |
| 20260506112725 | 45 | 157 | 0.0 | 0.0 | 0.00 | 0.34 | 0.34 | 99 | 1010.0 |
| 20260506112222 | 45 | 155 | 0.0 | 0.0 | 0.07 | 0.34 | 0.34 | 99 | 1010.4 |
| 20260506111720 | 45 | 150 | 0.0 | 0.0 | 0.07 | 0.34 | 0.34 | 99 | 1010.4 |
| 20260506111218 | 45 | 160 | 0.0 | 0.0 | 0.05 | 0.33 | 0.33 | 99 | 1010.4 |
| 20260506110714 | 45 | 158 | 0.0 | 0.0 | 0.12 | 0.33 | 0.33 | 99 | 1010.4 |
| 20260506110212 | 45 | 167 | 0.0 | 0.0 | 0.12 | 0.32 | 0.32 | 99 | 1010.7 |
| 20260506105708 | 45 | 159 | 0.0 | 0.0 | 0.05 | 0.31 | 0.31 | 99 | 1010.4 |
| 20260506105205 | 45 | 163 | 0.0 | 0.0 | 0.07 | 0.30 | 0.30 | 99 | 1010.4 |
| 20260506104703 | 45 | 157 | 0.0 | 0.0 | 0.05 | 0.29 | 0.29 | 99 | 1010.4 |
| 20260506104200 | 45 | 158 | 0.0 | 0.0 | 0.05 | 0.29 | 0.29 | 99 | 1010.4 |
| 20260506103657 | 45 | 148 | 0.0 | 0.0 | 0.07 | 0.28 | 0.28 | 99 | 1010.0 |
| 20260506103155 | 44 | 154 | 0.0 | 0.0 | 0.12 | 0.28 | 0.28 | 99 | 1010.0 |
| 20260506102653 | 44 | 147 | 0.0 | 0.0 | 0.12 | 0.27 | 0.27 | 99 | 1010.4 |
| 20260506102150 | 44 | 155 | 0.0 | 0.0 | 0.07 | 0.26 | 0.26 | 99 | 1010.0 |
| 20260506101647 | 44 | 156 | 0.0 | 0.0 | 0.00 | 0.25 | 0.25 | 99 | 1010.4 |
| 20260506101144 | 44 | 146 | 0.0 | 0.0 | 0.07 | 0.25 | 0.25 | 99 | 1010.0 |
| 20260506100642 | 44 | 155 | 0.0 | 0.0 | 0.07 | 0.25 | 0.25 | 99 | 1010.0 |
| 20260506100140 | 44 | 56 | 0.0 | 0.0 | 0.05 | 0.24 | 0.24 | 99 | 1010.0 |
| 20260506095638 | 44 | 161 | 0.0 | 0.0 | 0.05 | 0.24 | 0.24 | 99 | 1009.7 |
| 20260506095134 | 45 | 154 | 0.0 | 0.0 | 0.00 | 0.23 | 0.23 | 99 | 1009.7 |
| 20260506094632 | 44 | 152 | 0.0 | 0.0 | 0.07 | 0.23 | 0.23 | 99 | 1009.7 |
| 20260506094130 | 45 | 142 | 0.0 | 0.0 | 0.07 | 0.23 | 0.23 | 99 | 1010.0 |
| 20260506093628 | 45 | 143 | 0.0 | 0.0 | 0.05 | 0.22 | 0.22 | 99 | 1010.0 |
| 20260506093125 | 45 | 155 | 0.0 | 0.0 | 0.05 | 0.22 | 0.22 | 99 | 1010.4 |
| 20260506092623 | 45 | 177 | 0.0 | 0.0 | 0.07 | 0.21 | 0.21 | 99 | 1010.4 |
| 20260506092119 | 45 | 140 | 0.0 | 0.0 | 0.12 | 0.21 | 0.21 | 99 | 1010.7 |
| 20260506091617 | 45 | 155 | 0.0 | 0.0 | 0.17 | 0.20 | 0.20 | 99 | 1011.1 |
| 20260506091114 | 45 | 158 | 0.0 | 0.0 | 0.19 | 0.19 | 0.19 | 99 | 1010.7 |
| 20260506090613 | 45 | 185 | 0.0 | 0.0 | 0.12 | 0.17 | 0.17 | 99 | 1011.1 |
| 20260506090108 | 45 | 149 | 0.0 | 0.0 | 0.07 | 0.15 | 0.15 | 99 | 1010.7 |
| 20260506085606 | 45 | 149 | 0.0 | 0.0 | 0.00 | 0.14 | 0.14 | 99 | 1010.7 |
| 20260506085101 | 45 | 158 | 0.0 | 0.0 | 0.05 | 0.14 | 0.14 | 99 | 1010.7 |
| 20260506084559 | 45 | 155 | 0.0 | 0.0 | 0.00 | 0.13 | 0.13 | 99 | 1010.4 |
| 20260506084055 | 45 | 176 | 0.0 | 0.0 | 0.00 | 0.13 | 0.13 | 99 | 1010.7 |
| 20260506083552 | 45 | 116 | 0.0 | 0.0 | 0.00 | 0.13 | 0.13 | 99 | 1010.4 |
| 20260506083050 | 45 | 162 | 0.0 | 0.0 | 0.07 | 0.13 | 0.13 | 99 | 1010.4 |
| 20260506082546 | 45 | 153 | 0.0 | 0.0 | 0.07 | 0.13 | 0.13 | 99 | 1010.7 |
| 20260506082042 | 45 | 154 | 0.0 | 0.0 | 0.07 | 0.12 | 0.12 | 99 | 1010.7 |
| 20260506081540 | 45 | 210 | 3.0 | 5.0 | 0.07 | 0.12 | 0.12 | 99 | 1011.1 |
| 20260506081037 | 45 | 151 | 0.0 | 0.0 | 0.00 | 0.11 | 0.11 | 99 | 1010.4 |
| 20260506080535 | 45 | 312 | 1.0 | 2.0 | 0.05 | 0.11 | 0.11 | 99 | 1010.7 |
| 20260506073519 | 45 | 151 | 1.0 | 1.0 | 0.00 | 0.10 | 0.10 | 99 | 1010.4 |
| 20260506073015 | 46 | 183 | 0.0 | 1.0 | 0.00 | 0.10 | 0.10 | 99 | 1010.4 |
| 20260506072512 | 46 | 187 | 0.0 | 0.0 | 0.00 | 0.10 | 0.10 | 99 | 1010.4 |
| 20260506072010 | 47 | 154 | 0.0 | 0.0 | 0.00 | 0.10 | 0.10 | 99 | 1010.4 |
| 20260506071508 | 47 | 156 | 0.0 | 0.0 | 0.00 | 0.10 | 0.10 | 99 | 1010.4 |
| 20260506071005 | 47 | 145 | 0.0 | 0.0 | 0.00 | 0.10 | 0.10 | 99 | 1010.7 |
| 20260506070502 | 48 | 148 | 0.0 | 0.0 | 0.00 | 0.10 | 0.10 | 99 | 1010.4 |
| 20260506062439 | 48 | 157 | 0.0 | 0.0 | 0.00 | 0.09 | 0.09 | 99 | 1010.7 |
| 20260506061935 | 48 | 137 | 0.0 | 0.0 | 0.05 | 0.09 | 0.09 | 99 | 1011.1 |
| 20260506061432 | 48 | 146 | 0.0 | 0.0 | 0.05 | 0.09 | 0.09 | 99 | 1011.1 |
| 20260506060930 | 48 | 144 | 0.0 | 0.0 | 0.07 | 0.08 | 0.08 | 99 | 1011.1 |
| 20260506060428 | 48 | 151 | 0.0 | 0.0 | 0.12 | 0.08 | 0.08 | 99 | 1011.1 |
| 20260506051400 | 48 | 147 | 0.0 | 0.0 | 0.00 | 0.06 | 0.06 | 99 | 1011.7 |
| 20260506050857 | 48 | 162 | 0.0 | 0.0 | 0.00 | 0.06 | 0.06 | 99 | 1011.7 |
| 20260506050354 | 48 | 153 | 0.0 | 0.0 | 0.00 | 0.06 | 0.06 | 99 | 1012.1 |
| 20260506044845 | 48 | 137 | 0.0 | 0.0 | 0.07 | 0.06 | 0.06 | 99 | 1012.1 |
| 20260506044343 | 48 | 158 | 0.0 | 0.0 | 0.00 | 0.05 | 0.05 | 99 | 1012.1 |
| 20260506043839 | 48 | 154 | 0.0 | 0.0 | 0.00 | 0.05 | 0.05 | 99 | 1012.1 |
| 20260506043337 | 48 | 157 | 0.0 | 0.0 | 0.00 | 0.05 | 0.05 | 99 | 1012.1 |
| 20260506042835 | 48 | 157 | 0.0 | 0.0 | 0.00 | 0.05 | 0.05 | 99 | 1012.1 |
| 20260506042334 | 48 | 157 | 0.0 | 0.0 | 0.05 | 0.05 | 0.05 | 99 | 1012.1 |
| 20260506041832 | 48 | 153 | 0.0 | 0.0 | 0.17 | 0.05 | 0.05 | 99 | 1011.7 |
| 20260506041329 | 48 | 159 | 0.0 | 0.0 | 0.19 | 0.04 | 0.04 | 99 | 1011.7 |
| 20260506040826 | 48 | 171 | 0.0 | 0.0 | 0.12 | 0.02 | 0.02 | 99 | 1012.1 |
| 20260506040323 | 48 | 152 | 0.0 | 0.0 | 0.05 | 0.01 | 0.01 | 99 | 1011.7 |
| 20260506035819 | 48 | 153 | 0.0 | 0.0 | 0.07 | 0.44 | 0.44 | 99 | 1011.7 |
| 20260506035317 | 48 | 153 | 0.0 | 0.0 | 0.26 | 0.44 | 0.44 | 99 | 1011.7 |
| 20260506034814 | 48 | 153 | 0.0 | 0.0 | 0.24 | 0.42 | 0.42 | 99 | 1012.4 |
| 20260506034311 | 48 | 159 | 0.0 | 0.0 | 0.19 | 0.39 | 0.39 | 99 | 1012.1 |
| 20260506033808 | 48 | 155 | 0.0 | 0.0 | 0.17 | 0.38 | 0.38 | 99 | 1012.1 |
| 20260506033305 | 48 | 154 | 0.0 | 0.0 | 0.12 | 0.37 | 0.37 | 99 | 1012.1 |